225P/LINEAR (2009)

Japanese version
Home page
Updated on March 17, 2010

---------------------------------------------------------------------

* Profile

Designation 225P/2009 Q3
Recovery Date August 28, 2009
Magnitude 21.1 mag
Recoverer J. V. Scotti (Kitt Peak)

* Orbital Elements

Epoch 2009 Sept. 6.0 TT = JDT 2455080.5
T 2009 Aug. 25.53023 TT                                 MPC
q   1.3147398            (2000.0)            P               Q
n   0.14165643     Peri.    3.82697     +0.95190651     -0.29298025
a   3.6445607      Node    14.22495     +0.27053136     +0.66636780
e   0.6392597      Incl.   21.39648     +0.14382901     +0.68565044
P   6.96

* Magnitudes Graph

        m1 = 18.5 + 5 log d + 10.0 log r

---------------------------------------------------------------------

The orbital elements are published on M.P.E.C. 2009-Q69.
The magnitudes graphs are made with Comet for Windows.

---------------------------------------------------------------------

Copyright(C) Seiichi Yoshida (comet@aerith.net). All rights reserved.